weather.gov     
National Weather Service

Regional Weather Roundup
NWS Homepage
This page is being discontinued on March 12, 2014.
The same data is available at this site. Please update your bookmarks.
Thank you, and we apologize for the inconvenience.
Please send an email to SR-SRH.Webmaster@noaa.gov with any concerns.


Current Version
Previous Version:    01  02  03  04  05  06  07  08  09  10  11  12  13  14  15  16  17  18  19  20  21  22  23  24  25  26  
[Printable]
152
ASUS41 KPHI 220110
RWRPHI

REGIONAL WEATHER ROUNDUP
NATIONAL WEATHER SERVICE MOUNT HOLLY NJ
900 PM EDT TUE OCT 21 2014

NOTE:  "FAIR" INDICATES FEW OR NO CLOUDS BELOW 12,000 FEET WITH NO
SIGNIFICANT WEATHER AND/OR OBSTRUCTIONS TO VISIBILITY.

 * = STATION DOES NOT REPORT PRECIPITATION (E.G. RAIN, SNOW, ETC.)
        OR FOG.

NJZ015>026-220200-
SOUTHERN NEW JERSEY

CITY           SKY/WX    TMP DP  RH WIND       PRES   REMARKS
POMONA         PTCLDY    53  51  93 CALM      29.85R
RIO GRANDE*    PTCLDY    54  48  82 CALM      29.86R
MILLVILLE      MOCLDY    52  49  89 CALM      29.85R
WRIGHTSTOWN    MOCLDY    53  53  99 NE5       29.84R
MOUNT HOLLY    MOCLDY    54  49  83 NW3       29.86R
TRENTON        MOCLDY    58  52  80 NE9       29.87R

$$
NJZ001>014-220200-
NORTHERN NEW JERSEY

CITY           SKY/WX    TMP DP  RH WIND       PRES   REMARKS
SUSSEX         CLOUDY    55  49  80 NE5       29.92R
ANDOVER*         N/A     52  51  97 NE5       29.91R
MORRISTOWN     CLOUDY    54  52  94 N5        29.90R
NEWARK         CLOUDY    58  53  84 NE14      29.88S
TETERBORO      TSTM      57  53  86 NW5       29.90R
CALDWELL       LGT RAIN  55  52  89 NE3       29.90S
SOMERVILLE     MOCLDY    54  51  90 N5        29.87R
ALLAIRE*       PTCLDY    55  48  76 NE3       29.87R
TOMS RIVER*    PTCLDY    50  48  93 CALM      29.86R

$$
PAZ043-044-047-054-055-060>062-066>071-220200-
EASTERN PENNSYLVANIA

CITY           SKY/WX    TMP DP  RH WIND       PRES   REMARKS
PHILADELPHIA   CLOUDY    64  48  56 N7        29.86R
NORTH PHILA    LGT RAIN  60  51  72 NE8       29.88R
BLUE BELL      PTCLDY    59  50  72 CALM      29.85S
DOYLESTOWN     MOCLDY    56  51  84 N6        29.87R
QUAKERTOWN*    PTCLDY    54  50  87 NE3       29.89R
POTTSTOWN      CLOUDY    58  48  69 NE5       29.88R
LANCASTER      CLOUDY    57  48  72 NW6       29.89R
COATESVILLE    MOCLDY    55  48  76 N6        29.88R
READING        MOCLDY    55  48  77 N3        29.88R
ALLENTOWN      MOCLDY    55  49  80 NE7       29.89R
MOUNT POCONO   CLOUDY    50  47  89 N6        29.90S
HAZLETON       MOCLDY    52  46  82 CALM      29.93R
WILKES BARRE   CLOUDY    53  50  89 E3        29.92R

$$
DEZALL-MDZ008-012-015-019-020-220200-
DELAWARE AND EASTERN MARYLAND

CITY           SKY/WX    TMP DP  RH WIND       PRES   REMARKS
WILMINGTON     MOCLDY    57  52  83 N6        29.86R
DOVER          MOCLDY    55  52  90 NW2       29.83R
GEORGETOWN     MOCLDY    55  52  89 CALM      29.85R
EASTON         LGT RAIN  59  57  94 N13       29.90R
PATUXENT       CLOUDY    58  54  86 NW14      29.85R
OCEAN CITY     MOCLDY    54  53  97 CALM      29.84R
WALLOPS ISLAND MOCLDY    60  51  72 CALM      29.84R
CAMBRIDGE      CLOUDY    59  54  82 NW8G16    29.86R
SALISBURY      MOCLDY    58  51  78 CALM      29.83R

$$
PAZ001-021-NYZ056-072-MDZ011-DCZ001-220200-
OTHER NEARBY LOCATIONS

CITY           SKY/WX    TMP DP  RH WIND       PRES   REMARKS
HARRISBURG     CLOUDY    54  48  80 NW10      29.90R
STATE COLLEGE  CLOUDY    50  48  93 CALM      29.94R
WILLIAMSPORT   PTCLDY    50  46  86 CALM      29.92R
BINGHAMTON     CLOUDY    50  46  86 NE5       29.93R
NEW YORK CITY  RAIN      58  53  84 VRB3      29.93R
BALTIMORE      LGT RAIN  55  52  89 N7        29.88R
WASHINGTON DC  CLOUDY    58  50  75 NW8       29.90R

$$




U.S. Dept. of Commerce
NOAA National Weather Service
1325 East West Highway
Silver Spring, MD 20910
E-mail: w-nws.webmaster@noaa.gov
Page last modified: May 16, 2007
NATIONAL WEATHER SERVICE: for Safety, for Work, for Fun - FOR LIFE